ONEWEB-0082, 45452

Orbit data source: Space-Track

ONEWEB-0082, 45452 is a payload satellite owned by One Web (UK) in LEO that was launched on Sat, 21 Mar 2020 UTC via a SOYUZ-2-1B launch vehicle from the Tyuratam Missile And Space Complex (TTMTR). Payload-class satellites include a variety of spacecraft equipped with specific instruments for various scientific and technological missions. These include communications satellites like Starlink; space stations such as the ISS; scientific satellites like the Hubble; Earth observation satellites from companies like Planet Labs, Umbra, and HawkEye 360; GPS; miniature CubeSats for education and research; and military/defense satellites.

Loading next visibility...
Identifier
45452, 2020-020AE
Orbit
LEO
Country
Flag of UKUK
Related business
Manufacturer
One Web
Mission
Operational Commercial Communications
Bus & Motor
ARROW, Unknown motor
Mass
148 kg wet, ~140 kg dry
Launch date (UTC)
2020-03-21 (6 years ago)
Launch vehicle
SOYUZ-2-1B
Launch site
Tyuratam Missile And Space Complex (TTMTR)
Object type
Payload
Rocket body
Debris
Shape & HBR
Trap Box + 2 Pan, 6.7 m
Radar Cross Section
3.464 m², Medium (>0.1 m² and < 1m²)

Expand to show TLE details & history
Last TLE update: 6 hours ago

TLE from 6 hours ago
0 ONEWEB-0082
1 45452U 20020AE  26035.27162523 -.00000165  00000-0 -50007-3 0  9997
2 45452  87.8833  47.4958 0001651  85.3683 274.7634 13.11414315285251
Epoch: 2026-02-04T06:31Z
TLE epoch observation values (Epoch: 2026-02-04T06:31:08.419Z)
Latitude
0.00001°
Longitude
175.27013°
Altitude
1,220.478 km
Speed
7.244 km/s
True Right ascension
03h 09m 58s
True Declination
0° 00' 00"
Sunlit
Object was in daylight at epoch
Visualization orbit readout
Latitude
Unknown
Longitude
Unknown
Altitude
Unknown
Speed
Unknown
Apparent Right ascension
Unknown
Apparent Declination
Unknown
Sunlit
N/A
Visualization observer readout
Local Sidereal Time
14:15:58
Azimuth
Unknown
Elevation
Unknown
Doppler factor
Unknown
Orbital elements
Apogee altitude
1,216.065 km
Perigee altitude
1,213.558 km
Semi-major axis
7,592.948 km
Eccentricity
0.00017
Inclination
87.8833°
RAAN
47.4958°
Arg. of periapsis
85.3683°
True anomaly
274.74455°
Mean anomaly
274.7634°
Eccentric anomaly
274.75397°
Mean motion
3.28041 °/min
Orbital period
109.74 mins
BSTAR
-0.00050007
Loading maneuver chart data...
Computing Atmospheric mass density...
Loading historical data...
Loading historical data...
Loading historical data...
Loading historical data...
Loading historical data...
Loading historical data...
Loading historical data...

Documentation

Showing up to 5 results
|